Location: Wallasey
(53.4265°N, 3.0662°W)
Time: 04:56:31
(UTC+01:00)

NOAA 18 - Pass Details

Date: 20 September 2019
Orbit: 840 x 861 km, 99.1° (Epoch: 20 October)

Event Time Altitude Azimuth Distance (km) Brightness Sun altitude
Exits shadow 19:54:44 - 122° (ESE) 2,894 7.4 -6.5°
Reaches altitude 10° 19:55:53 10° 117° (ESE) 2,494 7.0 -6.6°
Maximum altitude 20:00:40 31° 57° (ENE) 1,474 6.1 -7.3°
Drops below altitude 10° 20:05:29 10° 358° (N) 2,513 7.9 -8.0°
Sets 20:08:06 0° 348° (NNW) 3,455 8.7 -8.4°
